Retour au catalogue

STARLINK-34655

ActifCommunicationsVLEO
NORAD 65027·PAYLOAD·🇺🇸 United States

Lancé Jul 30, 2025 depuis Cape Canaveral Space Force Station

Loading…

Prochains Passages (prochaines 24 heures)

TLE

FraisSource: CelesTrak SupGP

Époque: Sep 14, 2026, 21:07 UTC

1 65027C 25161N   26257.88034722 -.00069626  00000+0 -20571-2 0  2575
2 65027  53.1575 133.7934 0001313  98.3304  89.4595 15.34425483    13

Suivez STARLINK-34655 en temps réel avec AllMySat

Download on the App Store